G4MDH Weather Reports


time (UTC)temp
F
wind
direction
speed
knots
gust
knots
rain 1hr
in
rain 24hr
in
rain mn
in
humidity
%
barometer
mb
20260507135324 60 210 0.9 2.6 0.00 0.00 0.00 51 1014.9
20260507134829 60 269 0.0 2.6 0.00 0.00 0.00 52 1014.9
20260506215323 0 0.0 0.0 0.00 0.00 0.00 1014.9
20260506214824 0 0.0 0.0 0.00 0.00 0.00 1014.9
20260506214334 0 0.0 0.0 0.00 0.00 0.00 1014.9
20260506213333 0 0.0 0.0 0.00 0.00 0.00 1014.7
20260506212820 0 0.0 0.0 0.00 0.00 0.00 1014.6
20260506212323 0 0.0 0.0 0.00 0.00 0.00 1014.6
20260506210821 0 0.0 0.0 0.00 0.00 0.00 1014.6
20260506210345 0 0.0 0.0 0.00 0.00 0.00 1014.5
20260506205848 0 0.0 0.0 0.00 0.00 0.00 1014.4
20260506203837 0 0.0 0.0 0.00 0.00 0.00 1014.4
20260506203346 0 0.0 0.0 0.00 0.00 0.00 1014.3
20260506202349 49 127 0.0 2.6 0.00 0.00 0.00 68 1014.3
20260506201816 49 127 0.0 2.6 0.00 0.00 0.00 68 1014.3
20260506201346 49 120 0.9 2.6 0.00 0.00 0.00 67 1014.2
20260506200854 49 143 0.9 1.7 0.00 0.00 0.00 66 1014.1
20260506200336 49 132 0.0 0.9 0.00 0.00 0.00 66 1014.1
20260506195840 49 116 0.0 0.9 0.00 0.00 0.00 65 1014.0
20260506195321 50 134 0.0 0.9 0.00 0.00 0.00 64 1014.1
20260506194848 50 133 0.0 0.9 0.00 0.00 0.00 64 1014.1
20260506194329 50 133 0.0 0.9 0.00 0.00 0.00 63 1013.9
20260506193835 51 132 0.0 0.9 0.00 0.00 0.00 63 1013.8
20260506193318 51 131 0.0 1.7 0.00 0.00 0.00 62 1013.8
20260506192819 51 131 0.0 1.7 0.00 0.00 0.00 62 1013.8
20260506192321 52 127 0.9 3.5 0.00 0.00 0.00 61 1013.8
20260506191829 52 127 0.9 3.5 0.00 0.00 0.00 61 1013.8
20260506191311 52 125 0.0 3.5 0.00 0.00 0.00 61 1013.7
20260506190826 52 116 0.9 3.5 0.00 0.00 0.00 60 1013.7
20260506190314 52 122 0.9 3.5 0.00 0.00 0.00 59 1013.6
20260506185844 53 115 1.7 3.5 0.00 0.00 0.00 59 1013.6
20260506185345 53 146 0.9 3.5 0.00 0.00 0.00 58 1013.7
20260506184833 53 134 0.9 4.3 0.00 0.00 0.00 58 1013.7
20260506184315 54 110 0.9 4.3 0.00 0.00 0.00 57 1013.6
20260506183824 54 115 0.0 4.3 0.00 0.00 0.00 57 1013.7
20260506183334 54 146 0.9 3.5 0.00 0.00 0.00 56 1013.6
20260506182844 54 125 0.9 3.5 0.00 0.00 0.00 56 1013.6
20260506182324 55 130 0.9 4.3 0.00 0.00 0.00 56 1013.5
20260506181832 55 112 0.9 4.3 0.00 0.00 0.00 55 1013.5
20260506181334 55 129 1.7 4.3 0.00 0.00 0.00 55 1013.5
20260506180821 55 132 1.7 4.3 0.00 0.00 0.00 55 1013.4
20260506180346 55 122 0.0 3.5 0.00 0.00 0.00 55 1013.3
20260506175851 55 129 1.7 3.5 0.00 0.00 0.00 54 1013.3
20260506175312 55 143 0.9 4.3 0.00 0.00 0.00 54 1013.2
20260506174842 55 126 1.7 4.3 0.00 0.00 0.00 53 1013.2
20260506174323 56 130 0.9 4.3 0.00 0.00 0.00 53 1013.2
20260506173832 56 138 2.6 5.2 0.00 0.00 0.00 51 1013.2
20260506173316 56 114 1.7 5.2 0.00 0.00 0.00 51 1013.2
20260506172817 56 110 1.7 5.2 0.00 0.00 0.00 51 1013.2
20260506172346 57 127 1.7 4.3 0.00 0.00 0.00 50 1013.1
20260506171827 56 104 1.7 6.1 0.00 0.00 0.00 51 1013.1
20260506171335 56 91 0.9 6.1 0.00 0.00 0.00 50 1013.2
20260506170817 56 112 2.6 5.2 0.00 0.00 0.00 49 1013.1
20260506170317 56 152 1.7 5.2 0.00 0.00 0.00 48 1013.1
20260506165824 57 68 1.7 4.3 0.00 0.00 0.00 47 1013.0
20260506165326 57 51 0.9 4.3 0.00 0.00 0.00 47 1013.1
20260506164828 57 82 0.9 5.2 0.00 0.00 0.00 48 1013.0
20260506164337 57 83 2.6 6.1 0.00 0.00 0.00 47 1013.1
20260506163819 57 89 1.7 6.1 0.00 0.00 0.00 48 1013.1
20260506163322 58 103 2.6 5.2 0.00 0.00 0.00 47 1013.1
20260506162830 58 123 1.7 8.7 0.00 0.00 0.00 47 1013.1
20260506162312 58 134 2.6 8.7 0.00 0.00 0.00 47 1013.1
20260506161834 59 106 1.7 4.3 0.00 0.00 0.00 46 1013.0
20260506161322 59 120 1.7 10.4 0.00 0.00 0.00 46 1013.0
20260506160824 59 118 2.6 10.4 0.00 0.00 0.00 46 1012.9
20260506160314 59 4 0.9 6.1 0.00 0.00 0.00 46 1012.9
20260506155829 59 76 1.7 7.0 0.00 0.00 0.00 46 1013.0
20260506155338 59 79 2.6 7.0 0.00 0.00 0.00 46 1012.9
20260506154818 59 75 1.7 5.2 0.00 0.00 0.00 47 1013.0
20260506154319 58 110 1.7 6.1 0.00 0.00 0.00 47 1013.0
20260506153825 58 134 1.7 6.1 0.00 0.00 0.00 47 1013.0
20260506153328 59 117 2.6 5.2 0.00 0.00 0.00 47 1013.1
20260506152828 59 109 1.7 6.1 0.00 0.00 0.00 48 1013.0
20260506152319 58 100 2.6 7.8 0.00 0.00 0.00 47 1013.1
20260506151819 59 145 1.7 7.8 0.00 0.00 0.00 48 1013.1
20260506151328 60 131 2.6 11.3 0.00 0.00 0.00 48 1013.2
20260506150857 59 70 3.5 11.3 0.00 0.00 0.00 48 1013.2
20260506150315 59 68 3.5 7.0 0.00 0.00 0.00 47 1013.2
20260506145816 59 85 2.6 7.8 0.00 0.00 0.00 48 1013.1
20260506145325 58 81 3.5 7.8 0.00 0.00 0.00 48 1013.3
20260506144834 58 43 2.6 6.1 0.00 0.00 0.00 49 1013.2
20260506144315 58 72 0.9 6.1 0.00 0.00 0.00 49 1013.2
20260506143817 59 55 2.6 6.1 0.00 0.00 0.00 49 1013.3
20260506143347 59 95 1.7 4.3 0.00 0.00 0.00 50 1013.3
20260506142827 58 125 1.7 6.1 0.00 0.00 0.00 49 1013.3
20260506142337 59 67 2.6 6.1 0.00 0.00 0.00 49 1013.4
20260506141837 59 191 1.7 6.1 0.00 0.00 0.00 50 1013.3
20260506141324 58 120 2.6 6.1 0.00 0.00 0.00 50 1013.4
20260506140826 57 106 1.7 6.1 0.00 0.00 0.00 52 1013.3
20260506140325 57 72 1.7 8.7 0.00 0.00 0.00 51 1013.4
20260506135833 57 111 2.6 8.7 0.00 0.00 0.00 51 1013.4